Tracking 28356 objects as of 7-Dec-2023
HD Live streaming from Space Station
objects crossing your sky now

STARLINK-30777

Track STARLINK-30777 now!
10-day predictions
STARLINK-30777 is classified as:


NORAD ID: 58233
Int'l Code: 2023-171D
Perigee: 524.1 km
Apogee: 525.8 km
Inclination: 43.0 °
Period: 95.0 minutes
Semi major axis: 6895 km
RCS: Unknown
Launch date: November 8, 2023
Source: United States (US)
Launch site: AIR FORCE EASTERN TEST RANGE (AFETR)
Your satellite tracking list
Your tracking list is empty




NASA's NSSDC Master Catalog

Two Line Element Set (TLE):
1 58233U 23171D   23341.58335648 -.00151328  00000-0 -78770-2 0  9993
2 58233  42.9998  86.0176 0001211 258.3615 354.7806 15.16050200  5780
Source of the keplerian elements: AFSPC